Time,TemperatureF,DewpointF,PressureIn,WindDirection,WindDirectionDegrees,WindSpeedMPH,WindSpeedGustMPH,Humidity,HourlyPrecipIn,Conditions,Clouds,dailyrainin,SoftwareType,DateUTC
2013-07-02 00:01:00,67.0,61.0,29.95,South,173,0.0,0.0,80,0.00,,,0.01,,2013-07-02 05:01:00,
2013-07-02 00:11:00,67.0,61.0,29.95,SSW,210,0.0,1.0,82,0.00,,,0.01,,2013-07-02 05:11:00,
2013-07-02 00:22:00,66.0,61.0,29.95,SSW,210,0.0,0.0,83,0.00,,,0.01,,2013-07-02 05:22:00,
2013-07-02 00:32:00,66.0,61.0,29.95,SSW,209,0.0,0.0,83,0.00,,,0.01,,2013-07-02 05:32:00,
2013-07-02 00:43:00,66.0,61.0,29.95,SSW,210,0.0,0.0,84,0.00,,,0.01,,2013-07-02 05:43:00,
2013-07-02 00:53:00,66.0,61.0,29.95,SSW,210,0.0,0.0,85,0.00,,,0.01,,2013-07-02 05:53:00,
2013-07-02 01:01:00,65.0,61.0,29.95,SSW,210,0.0,0.0,86,0.00,,,0.01,,2013-07-02 06:01:00,
2013-07-02 01:12:00,65.0,61.0,29.95,SSW,210,0.0,0.0,87,0.00,,,0.01,,2013-07-02 06:12:00,
2013-07-02 01:23:00,65.0,61.0,29.95,SSW,210,0.0,0.0,88,0.00,,,0.01,,2013-07-02 06:23:00,
2013-07-02 01:34:00,65.0,61.0,29.95,SSW,209,0.0,0.0,88,0.00,,,0.01,,2013-07-02 06:34:00,
2013-07-02 01:43:00,64.0,61.0,29.95,SSW,210,0.0,0.0,89,0.00,,,0.01,,2013-07-02 06:43:00,
2013-07-02 01:53:00,64.0,61.0,29.94,SSW,210,0.0,0.0,90,0.00,,,0.01,,2013-07-02 06:53:00,
2013-07-02 02:01:00,65.0,62.0,29.94,SSW,210,0.0,0.0,90,0.00,,,0.01,,2013-07-02 07:01:00,
2013-07-02 02:12:00,64.0,61.0,29.94,SSW,210,0.0,0.0,90,0.00,,,0.01,,2013-07-02 07:12:00,
2013-07-02 02:22:00,64.0,61.0,29.94,SSW,210,0.0,0.0,90,0.00,,,0.01,,2013-07-02 07:22:00,
2013-07-02 02:34:00,64.0,61.0,29.94,SSW,209,0.0,0.0,91,0.00,,,0.01,,2013-07-02 07:34:00,
2013-07-02 02:44:00,65.0,62.0,29.94,SSW,210,0.0,0.0,91,0.00,,,0.01,,2013-07-02 07:44:00,
2013-07-02 02:53:00,65.0,62.0,29.94,SSW,210,0.0,0.0,91,0.00,,,0.01,,2013-07-02 07:53:00,
2013-07-02 03:02:00,66.0,63.0,29.94,SSW,210,0.0,0.0,90,0.00,,,0.01,,2013-07-02 08:02:00,
2013-07-02 03:22:00,66.0,62.0,29.93,SSW,210,0.0,0.0,88,0.00,,,0.01,,2013-07-02 08:22:00,
2013-07-02 03:33:00,66.0,62.0,29.93,SE,139,0.0,1.0,88,0.00,,,0.01,,2013-07-02 08:33:00,
2013-07-02 03:44:00,66.0,63.0,29.93,South,184,0.0,1.0,89,0.00,,,0.01,,2013-07-02 08:44:00,
2013-07-02 03:53:00,65.0,62.0,29.93,SW,232,0.0,1.0,89,0.00,,,0.01,,2013-07-02 08:53:00,
2013-07-02 04:02:00,65.0,62.0,29.93,SW,232,0.0,0.0,90,0.00,,,0.01,,2013-07-02 09:02:00,
2013-07-02 04:11:00,65.0,62.0,29.93,SW,232,0.0,0.0,90,0.00,,,0.01,,2013-07-02 09:11:00,
2013-07-02 04:23:00,64.0,61.0,29.93,SW,226,0.0,1.0,91,0.00,,,0.01,,2013-07-02 09:23:00,
2013-07-02 04:33:00,64.0,61.0,29.94,SW,226,0.0,0.0,91,0.00,,,0.01,,2013-07-02 09:33:00,
2013-07-02 04:43:00,64.0,61.0,29.94,SW,226,0.0,0.0,91,0.00,,,0.01,,2013-07-02 09:43:00,
2013-07-02 04:52:00,64.0,62.0,29.94,SW,226,0.0,1.0,92,0.00,,,0.01,,2013-07-02 09:52:00,
2013-07-02 05:01:00,64.0,62.0,29.95,SW,226,0.0,0.0,92,0.00,,,0.01,,2013-07-02 10:01:00,
2013-07-02 05:22:00,63.0,61.0,29.95,SW,226,0.0,0.0,92,0.00,,,0.01,,2013-07-02 10:22:00,
2013-07-02 05:33:00,63.0,61.0,29.96,SW,226,0.0,0.0,93,0.00,,,0.01,,2013-07-02 10:33:00,
2013-07-02 05:44:00,63.0,61.0,29.96,SW,226,0.0,1.0,94,0.00,,,0.01,,2013-07-02 10:44:00,
2013-07-02 05:52:00,63.0,61.0,29.96,SW,226,0.0,1.0,94,0.00,,,0.01,,2013-07-02 10:52:00,
2013-07-02 06:01:00,63.0,61.0,29.97,SW,226,0.0,0.0,94,0.00,,,0.01,,2013-07-02 11:01:00,
2013-07-02 06:11:00,62.0,60.0,29.97,SW,226,0.0,0.0,94,0.00,,,0.01,,2013-07-02 11:11:00,
2013-07-02 06:22:00,62.0,60.0,29.98,SW,226,0.0,0.0,94,0.00,,,0.01,,2013-07-02 11:22:00,
2013-07-02 06:33:00,63.0,61.0,29.98,SW,226,0.0,0.0,94,0.00,,,0.01,,2013-07-02 11:33:00,
2013-07-02 06:52:00,65.0,63.0,29.98,SW,226,0.0,0.0,93,0.00,,,0.01,,2013-07-02 11:52:00,
2013-07-02 07:11:00,65.0,62.0,29.98,WSW,246,0.0,1.0,91,0.00,,,0.01,,2013-07-02 12:11:00,
2013-07-02 07:23:00,65.0,62.0,29.99,WSW,246,0.0,0.0,91,0.00,,,0.01,,2013-07-02 12:23:00,
2013-07-02 07:33:00,65.0,62.0,29.99,WSW,245,0.0,0.0,91,0.00,,,0.01,,2013-07-02 12:33:00,
2013-07-02 07:43:00,66.0,63.0,29.99,WSW,237,0.0,1.0,90,0.00,,,0.01,,2013-07-02 12:43:00,
2013-07-02 07:52:00,67.0,63.0,29.99,WSW,242,0.0,2.0,87,0.00,,,0.01,,2013-07-02 12:52:00,
2013-07-02 08:01:00,68.0,63.0,29.99,ENE,63,1.0,2.0,85,0.00,,,0.01,,2013-07-02 13:01:00,
2013-07-02 08:11:00,68.0,63.0,29.99,WSW,243,0.0,2.0,85,0.00,,,0.01,,2013-07-02 13:11:00,
2013-07-02 08:22:00,69.0,63.0,30.00,West,264,0.0,3.0,82,0.00,,,0.00,,2013-07-02 13:22:00,
2013-07-02 08:34:00,69.0,63.0,30.00,SSW,208,0.0,1.0,80,0.00,,,0.00,,2013-07-02 13:34:00,
2013-07-02 08:52:00,71.0,63.0,30.00,NW,319,0.0,3.0,76,0.00,,,0.00,,2013-07-02 13:52:00,
2013-07-02 09:02:00,72.0,63.0,30.01,NE,39,0.0,2.0,73,0.00,,,0.00,,2013-07-02 14:02:00,
2013-07-02 09:11:00,73.0,63.0,30.01,SSW,209,2.0,3.0,71,0.00,,,0.00,,2013-07-02 14:11:00,
2013-07-02 09:22:00,73.0,62.0,30.01,ESE,114,0.0,2.0,69,0.00,,,0.00,,2013-07-02 14:22:00,
2013-07-02 09:43:00,76.0,64.0,30.01,SSW,203,0.0,1.0,66,0.00,,,0.00,,2013-07-02 14:43:00,
2013-07-02 09:53:00,77.0,64.0,30.01,ESE,113,0.0,1.0,64,0.00,,,0.00,,2013-07-02 14:53:00,
2013-07-02 10:02:00,78.0,63.0,30.01,WSW,253,1.0,2.0,61,0.00,,,0.00,,2013-07-02 15:02:00,
2013-07-02 10:22:00,78.0,63.0,30.01,SW,227,0.0,3.0,61,0.00,,,0.00,,2013-07-02 15:22:00,
2013-07-02 10:33:00,79.0,64.0,30.01,SW,236,1.0,5.0,60,0.00,,,0.00,,2013-07-02 15:33:00,
2013-07-02 10:44:00,79.0,63.0,30.01,WSW,245,1.0,3.0,58,0.00,,,0.00,,2013-07-02 15:44:00,
2013-07-02 10:53:00,79.0,64.0,30.00,SW,218,0.0,6.0,60,0.00,,,0.00,,2013-07-02 15:53:00,
2013-07-02 11:01:00,80.0,63.0,30.00,SW,219,1.0,5.0,57,0.00,,,0.00,,2013-07-02 16:01:00,
2013-07-02 11:12:00,80.0,63.0,30.01,SSW,211,1.0,7.0,56,0.00,,,0.00,,2013-07-02 16:12:00,
2013-07-02 11:22:00,80.0,63.0,30.00,SSW,204,1.0,5.0,56,0.00,,,0.00,,2013-07-02 16:22:00,
2013-07-02 11:33:00,82.0,63.0,30.01,West,262,2.0,3.0,53,0.00,,,0.00,,2013-07-02 16:33:00,
2013-07-02 11:43:00,81.0,63.0,30.01,NW,325,1.0,4.0,55,0.00,,,0.00,,2013-07-02 16:43:00,
2013-07-02 11:52:00,82.0,63.0,30.00,SSW,198,1.0,5.0,52,0.00,,,0.00,,2013-07-02 16:52:00,
2013-07-02 12:02:00,81.0,62.0,30.01,SSE,155,0.0,5.0,53,0.00,,,0.00,,2013-07-02 17:02:00,
2013-07-02 12:11:00,82.0,61.0,30.01,ESE,114,2.0,5.0,50,0.00,,,0.00,,2013-07-02 17:11:00,
2013-07-02 12:33:00,81.0,61.0,30.01,SW,215,1.0,5.0,51,0.00,,,0.00,,2013-07-02 17:33:00,
2013-07-02 12:43:00,82.0,61.0,30.01,East,85,1.0,4.0,50,0.00,,,0.00,,2013-07-02 17:43:00,
2013-07-02 12:53:00,82.0,61.0,30.01,SW,235,1.0,5.0,49,0.00,,,0.00,,2013-07-02 17:53:00,
2013-07-02 13:02:00,83.0,62.0,30.01,ESE,115,2.0,3.0,50,0.00,,,0.00,,2013-07-02 18:02:00,
2013-07-02 13:12:00,84.0,63.0,30.01,ESE,104,1.0,4.0,50,0.00,,,0.00,,2013-07-02 18:12:00,
2013-07-02 13:23:00,84.0,61.0,30.01,SW,234,1.0,3.0,46,0.00,,,0.00,,2013-07-02 18:23:00,
2013-07-02 13:34:00,84.0,63.0,30.01,SW,225,1.0,6.0,50,0.00,,,0.00,,2013-07-02 18:34:00,
2013-07-02 13:43:00,85.0,64.0,30.01,SSW,211,0.0,3.0,50,0.00,,,0.00,,2013-07-02 18:43:00,
2013-07-02 13:53:00,85.0,64.0,30.00,SSW,197,1.0,5.0,49,0.00,,,0.00,,2013-07-02 18:53:00,
2013-07-02 14:01:00,85.0,64.0,30.00,SSE,158,1.0,6.0,49,0.00,,,0.00,,2013-07-02 19:01:00,
2013-07-02 14:12:00,85.0,63.0,30.00,South,172,0.0,5.0,48,0.00,,,0.00,,2013-07-02 19:12:00,
2013-07-02 14:22:00,86.0,64.0,30.00,ESE,112,0.0,4.0,48,0.00,,,0.00,,2013-07-02 19:22:00,
2013-07-02 14:34:00,86.0,63.0,30.00,SE,131,1.0,4.0,47,0.00,,,0.00,,2013-07-02 19:34:00,
2013-07-02 14:43:00,86.0,63.0,30.00,SSE,147,0.0,4.0,47,0.00,,,0.00,,2013-07-02 19:43:00,
2013-07-02 14:53:00,87.0,64.0,29.99,SW,215,0.0,2.0,46,0.00,,,0.00,,2013-07-02 19:53:00,
2013-07-02 15:02:00,86.0,63.0,29.99,SW,219,1.0,3.0,46,0.00,,,0.00,,2013-07-02 20:02:00,
2013-07-02 15:11:00,86.0,63.0,29.99,SSW,206,0.0,5.0,46,0.00,,,0.00,,2013-07-02 20:11:00,
2013-07-02 15:22:00,87.0,62.0,29.99,SW,236,2.0,4.0,44,0.00,,,0.00,,2013-07-02 20:22:00,
2013-07-02 15:33:00,86.0,63.0,29.99,SSW,197,1.0,5.0,46,0.00,,,0.00,,2013-07-02 20:33:00,
2013-07-02 15:43:00,86.0,62.0,29.99,SSW,201,1.0,2.0,45,0.00,,,0.00,,2013-07-02 20:43:00,
2013-07-02 15:52:00,87.0,62.0,29.99,NW,306,0.0,3.0,44,0.00,,,0.00,,2013-07-02 20:52:00,
2013-07-02 16:02:00,87.0,62.0,29.99,SSW,203,1.0,4.0,44,0.00,,,0.00,,2013-07-02 21:02:00,
2013-07-02 16:11:00,86.0,62.0,29.99,SW,226,1.0,5.0,44,0.00,,,0.00,,2013-07-02 21:11:00,
2013-07-02 16:22:00,87.0,62.0,29.99,SSW,213,1.0,4.0,44,0.00,,,0.00,,2013-07-02 21:22:00,
2013-07-02 16:33:00,87.0,62.0,29.98,SW,225,1.0,3.0,44,0.00,,,0.00,,2013-07-02 21:33:00,
2013-07-02 16:44:00,87.0,62.0,29.99,SSW,203,1.0,4.0,44,0.00,,,0.00,,2013-07-02 21:44:00,
2013-07-02 16:52:00,85.0,61.0,29.99,SSW,211,0.0,2.0,45,0.00,,,0.00,,2013-07-02 21:52:00,
2013-07-02 17:01:00,85.0,61.0,29.98,SSW,206,1.0,4.0,45,0.00,,,0.00,,2013-07-02 22:01:00,
2013-07-02 17:11:00,84.0,63.0,29.98,SSW,209,0.0,4.0,49,0.00,,,0.00,,2013-07-02 22:11:00,
2013-07-02 17:22:00,85.0,61.0,29.98,WSW,241,1.0,5.0,45,0.00,,,0.00,,2013-07-02 22:22:00,
2013-07-02 17:34:00,85.0,63.0,29.98,SSE,159,0.0,3.0,48,0.00,,,0.00,,2013-07-02 22:34:00,
2013-07-02 17:43:00,86.0,63.0,29.98,SSW,194,0.0,1.0,46,0.00,,,0.00,,2013-07-02 22:43:00,
2013-07-02 17:53:00,86.0,63.0,29.98,SE,145,0.0,2.0,46,0.00,,,0.00,,2013-07-02 22:53:00,
2013-07-02 18:01:00,86.0,62.0,29.98,SW,229,0.0,3.0,45,0.00,,,0.00,,2013-07-02 23:01:00,
2013-07-02 18:11:00,86.0,62.0,29.98,WSW,248,1.0,2.0,44,0.00,,,0.00,,2013-07-02 23:11:00,
2013-07-02 18:22:00,86.0,62.0,29.98,SSE,149,0.0,3.0,45,0.00,,,0.00,,2013-07-02 23:22:00,
2013-07-02 18:33:00,85.0,62.0,29.98,SSE,156,0.0,3.0,46,0.00,,,0.00,,2013-07-02 23:33:00,
2013-07-02 18:44:00,84.0,61.0,29.98,WSW,238,0.0,1.0,46,0.00,,,0.00,,2013-07-02 23:44:00,
2013-07-02 18:52:00,83.0,62.0,29.98,SE,125,0.0,1.0,49,0.00,,,0.00,,2013-07-02 23:52:00,
2013-07-02 19:01:00,82.0,61.0,29.99,SW,224,0.0,2.0,49,0.00,,,0.00,,2013-07-03 00:01:00,
2013-07-02 19:11:00,82.0,62.0,29.99,SW,225,0.0,2.0,51,0.00,,,0.00,,2013-07-03 00:11:00,
2013-07-02 19:33:00,80.0,61.0,30.00,SW,221,0.0,0.0,52,0.00,,,0.00,,2013-07-03 00:33:00,
2013-07-02 19:44:00,80.0,62.0,30.00,SW,221,0.0,0.0,54,0.00,,,0.00,,2013-07-03 00:44:00,
2013-07-02 19:52:00,79.0,61.0,30.00,SW,221,0.0,0.0,54,0.00,,,0.00,,2013-07-03 00:52:00,
2013-07-02 20:01:00,79.0,61.0,30.00,SW,221,0.0,0.0,55,0.00,,,0.00,,2013-07-03 01:01:00,
2013-07-02 20:11:00,79.0,63.0,30.00,SW,221,0.0,0.0,58,0.00,,,0.00,,2013-07-03 01:11:00,
2013-07-02 20:22:00,78.0,63.0,30.01,SSW,201,0.0,1.0,61,0.00,,,0.00,,2013-07-03 01:22:00,
2013-07-02 20:33:00,78.0,65.0,30.01,ESE,122,0.0,0.0,64,0.00,,,0.00,,2013-07-03 01:33:00,
2013-07-02 20:42:00,77.0,64.0,30.01,East,86,0.0,1.0,65,0.00,,,0.00,,2013-07-03 01:42:00,
2013-07-02 21:04:00,77.0,65.0,30.02,East,86,0.0,1.0,66,0.00,,,0.00,,2013-07-03 02:04:00,
2013-07-02 21:14:00,76.0,64.0,30.02,ESE,119,0.0,1.0,66,0.00,,,0.00,,2013-07-03 02:14:00,
2013-07-02 21:27:00,75.0,64.0,30.03,SSW,198,0.0,1.0,69,0.00,,,0.00,,2013-07-03 02:27:00,
2013-07-02 21:39:00,74.0,66.0,30.04,WSW,252,0.0,2.0,76,0.01,,,0.01,,2013-07-03 02:39:00,
2013-07-02 21:44:00,72.0,65.0,30.04,East,94,1.0,2.0,80,0.01,,,0.01,,2013-07-03 02:44:00,
2013-07-02 21:55:00,70.0,65.0,30.04,ESE,114,0.0,5.0,83,0.01,,,0.01,,2013-07-03 02:55:00,
2013-07-02 22:04:00,70.0,65.0,30.05,ESE,113,0.0,1.0,84,0.01,,,0.01,,2013-07-03 03:04:00,
2013-07-02 22:13:00,70.0,65.0,30.05,ESE,115,0.0,0.0,85,0.01,,,0.01,,2013-07-03 03:13:00,
2013-07-02 22:25:00,70.0,66.0,30.05,ESE,114,0.0,0.0,86,0.01,,,0.01,,2013-07-03 03:25:00,
2013-07-02 22:35:00,69.0,65.0,30.06,ESE,115,0.0,0.0,87,0.00,,,0.01,,2013-07-03 03:35:00,
2013-07-02 22:47:00,69.0,65.0,30.05,ESE,115,0.0,1.0,88,0.00,,,0.01,,2013-07-03 03:47:00,
2013-07-02 22:55:00,69.0,66.0,30.05,East,79,0.0,1.0,89,0.00,,,0.01,,2013-07-03 03:55:00,
2013-07-02 23:01:00,69.0,66.0,30.05,ENE,78,0.0,2.0,89,0.00,,,0.01,,2013-07-03 04:01:00,
2013-07-02 23:11:00,69.0,66.0,30.05,ENE,77,0.0,1.0,89,0.00,,,0.01,,2013-07-03 04:11:00,
2013-07-02 23:22:00,69.0,66.0,30.05,ENE,77,0.0,1.0,89,0.00,,,0.01,,2013-07-03 04:22:00,
2013-07-02 23:33:00,68.0,65.0,30.05,ENE,77,0.0,1.0,90,0.00,,,0.01,,2013-07-03 04:33:00,
2013-07-02 23:43:00,68.0,65.0,30.06,ENE,77,0.0,0.0,90,0.00,,,0.01,,2013-07-03 04:43:00,
2013-07-02 23:52:00,68.0,65.0,30.06,ENE,77,0.0,0.0,91,0.00,,,0.01,,2013-07-03 04:52:00,